| time (UTC) | temp C | wind direction | speed KPH | gust KPH | rain 1hr cm | rain 24hr cm | rain mn cm | humidity % | barometer mb |
| 20260905190436 | 20 | 224 | 8.0 | 22.5 | 0.00 | 0.00 | 0.00 | 69 | 1015.4 |
| 20260905185932 | 20 | 304 | 12.9 | 22.5 | 0.00 | 0.00 | 0.00 | 69 | 1015.3 |
| 20260905185418 | 20 | 280 | 12.9 | 22.5 | 0.00 | 0.00 | 0.00 | 68 | 1015.3 |
| 20260905184923 | 20 | 264 | 11.3 | 20.9 | 0.00 | 0.00 | 0.00 | 68 | 1015.2 |
| 20260905184431 | 20 | 247 | 8.0 | 17.7 | 0.00 | 0.00 | 0.00 | 68 | 1015.1 |
| 20260905183935 | 20 | 263 | 11.3 | 16.1 | 0.00 | 0.00 | 0.00 | 67 | 1015.2 |
| 20260905183449 | 21 | 245 | 8.0 | 16.1 | 0.00 | 0.00 | 0.00 | 68 | 1015.2 |
| 20260905182933 | 21 | 240 | 6.4 | 16.1 | 0.00 | 0.00 | 0.00 | 68 | 1015.3 |
| 20260905182418 | 21 | 294 | 6.4 | 14.5 | 0.00 | 0.00 | 0.00 | 68 | 1015.2 |
| 20260905181923 | 20 | 277 | 4.8 | 14.5 | 0.00 | 0.00 | 0.00 | 69 | 1015.3 |
| 20260905181431 | 20 | 14 | 4.8 | 9.7 | 0.00 | 0.00 | 0.00 | 69 | 1015.3 |
| 20260905180937 | 20 | 259 | 4.8 | 12.9 | 0.00 | 0.00 | 0.00 | 69 | 1015.3 |
| 20260905180422 | 20 | 299 | 6.4 | 12.9 | 0.00 | 0.00 | 0.00 | 69 | 1015.3 |
| 20260905175941 | 20 | 1 | 1.6 | 11.3 | 0.00 | 0.00 | 0.00 | 70 | 1015.2 |
| 20260905175426 | 20 | 147 | 4.8 | 11.3 | 0.00 | 0.00 | 0.00 | 70 | 1015.2 |
| 20260905174933 | 20 | 323 | 4.8 | 11.3 | 0.00 | 0.00 | 0.00 | 70 | 1015.1 |
| 20260905174418 | 20 | 259 | 3.2 | 6.4 | 0.00 | 0.00 | 0.00 | 71 | 1015.2 |
| 20260905173921 | 19 | 339 | 3.2 | 8.0 | 0.00 | 0.00 | 0.00 | 72 | 1015.1 |
| 20260905173424 | 18 | 333 | 3.2 | 9.7 | 0.00 | 0.00 | 0.00 | 72 | 1015.1 |
| 20260905172921 | 18 | 308 | 6.4 | 9.7 | 0.00 | 0.00 | 0.00 | 71 | 1015.1 |
| 20260905172426 | 19 | 360 | 3.2 | 9.7 | 0.00 | 0.00 | 0.00 | 72 | 1015.1 |
| 20260905171930 | 18 | 276 | 6.4 | 11.3 | 0.00 | 0.00 | 0.00 | 72 | 1014.9 |
| 20260905171436 | 19 | 329 | 4.8 | 11.3 | 0.00 | 0.00 | 0.00 | 72 | 1015.0 |
| 20260905170942 | 18 | 151 | 4.8 | 11.3 | 0.00 | 0.00 | 0.00 | 72 | 1015.0 |
| 20260905170429 | 19 | 249 | 6.4 | 9.7 | 0.00 | 0.00 | 0.00 | 72 | 1014.9 |
| 20260905165934 | 19 | 257 | 4.8 | 8.0 | 0.00 | 0.00 | 0.00 | 72 | 1014.9 |
| 20260905165434 | 19 | 151 | 3.2 | 6.4 | 0.00 | 0.00 | 0.00 | 72 | 1014.8 |
| 20260905164919 | 18 | 95 | 4.8 | 6.4 | 0.00 | 0.00 | 0.00 | 73 | 1014.8 |
| 20260905164424 | 18 | 88 | 3.2 | 6.4 | 0.00 | 0.00 | 0.00 | 73 | 1014.8 |
| 20260905163930 | 18 | 352 | 3.2 | 6.4 | 0.00 | 0.00 | 0.00 | 74 | 1014.8 |
| 20260905163435 | 18 | 151 | 3.2 | 8.0 | 0.00 | 0.00 | 0.00 | 75 | 1014.7 |
| 20260905162920 | 17 | 151 | 3.2 | 8.0 | 0.00 | 0.00 | 0.00 | 75 | 1014.7 |
| 20260905162428 | 17 | 207 | 1.6 | 6.4 | 0.00 | 0.00 | 0.00 | 76 | 1014.7 |
| 20260905161932 | 17 | 202 | 3.2 | 6.4 | 0.00 | 0.00 | 0.00 | 76 | 1014.6 |
| 20260905161449 | 17 | 222 | 3.2 | 6.4 | 0.00 | 0.00 | 0.00 | 78 | 1014.7 |
| 20260905160933 | 17 | 78 | 3.2 | 4.8 | 0.00 | 0.00 | 0.00 | 80 | 1014.6 |
| 20260905160420 | 17 | 55 | 3.2 | 6.4 | 0.00 | 0.00 | 0.00 | 81 | 1014.6 |
| 20260905155925 | 17 | 156 | 3.2 | 6.4 | 0.00 | 0.00 | 0.00 | 82 | 1014.6 |
| 20260905155430 | 16 | 212 | 3.2 | 8.0 | 0.00 | 0.00 | 0.00 | 83 | 1014.6 |
| 20260905154936 | 16 | 151 | 4.8 | 8.0 | 0.00 | 0.00 | 0.00 | 84 | 1014.6 |
| 20260905154421 | 16 | 177 | 3.2 | 6.4 | 0.00 | 0.00 | 0.00 | 84 | 1014.8 |
| 20260905153921 | 16 | 212 | 3.2 | 6.4 | 0.00 | 0.00 | 0.00 | 85 | 1014.8 |
| 20260905153427 | 16 | 177 | 3.2 | 8.0 | 0.00 | 0.00 | 0.00 | 85 | 1014.9 |
| 20260905152931 | 16 | 194 | 4.8 | 8.0 | 0.00 | 0.00 | 0.00 | 85 | 1014.8 |
| 20260905152433 | 16 | 228 | 3.2 | 8.0 | 0.00 | 0.00 | 0.00 | 85 | 1014.9 |
| 20260905151938 | 16 | 222 | 3.2 | 6.4 | 0.00 | 0.00 | 0.00 | 86 | 1014.8 |
| 20260905151452 | 15 | 107 | 1.6 | 6.4 | 0.00 | 0.00 | 0.00 | 86 | 1014.8 |
| 20260905150932 | 16 | 214 | 1.6 | 4.8 | 0.00 | 0.00 | 0.00 | 86 | 1014.8 |
| 20260905150434 | 15 | 158 | 1.6 | 4.8 | 0.00 | 0.00 | 0.00 | 87 | 1014.7 |
| 20260905145936 | 15 | 200 | 1.6 | 3.2 | 0.00 | 0.00 | 0.00 | 87 | 1014.7 |
| 20260905145419 | 15 | 123 | 1.6 | 1.6 | 0.00 | 0.00 | 0.00 | 87 | 1014.7 |
| 20260905144943 | 15 | 134 | 0.0 | 3.2 | 0.00 | 0.00 | 0.00 | 87 | 1014.6 |
| 20260905144427 | 15 | 62 | 1.6 | 3.2 | 0.00 | 0.00 | 0.00 | 87 | 1014.6 |
| 20260905143930 | 15 | 88 | 3.2 | 3.2 | 0.00 | 0.00 | 0.00 | 87 | 1014.7 |
| 20260905143430 | 14 | 97 | 1.6 | 3.2 | 0.00 | 0.00 | 0.00 | 87 | 1014.6 |
| 20260905142933 | 14 | 151 | 1.6 | 4.8 | 0.00 | 0.00 | 0.00 | 87 | 1014.6 |
| 20260905142449 | 14 | 208 | 3.2 | 4.8 | 0.00 | 0.00 | 0.00 | 87 | 1014.6 |
| 20260905141933 | 13 | 194 | 3.2 | 6.4 | 0.00 | 0.00 | 0.00 | 87 | 1014.6 |
| 20260905141439 | 13 | 177 | 3.2 | 8.0 | 0.00 | 0.00 | 0.00 | 87 | 1014.5 |
| 20260905140953 | 13 | 201 | 4.8 | 8.0 | 0.00 | 0.00 | 0.00 | 87 | 1014.5 |
| 20260905140418 | 13 | 208 | 4.8 | 8.0 | 0.00 | 0.00 | 0.00 | 87 | 1014.4 |
| 20260905135936 | 13 | 192 | 3.2 | 6.4 | 0.00 | 0.00 | 0.00 | 87 | 1014.4 |
| 20260905135422 | 13 | 205 | 3.2 | 6.4 | 0.00 | 0.00 | 0.00 | 87 | 1014.3 |
| 20260905134926 | 13 | 196 | 3.2 | 6.4 | 0.00 | 0.00 | 0.00 | 87 | 1014.2 |
| 20260905134433 | 13 | 192 | 3.2 | 6.4 | 0.00 | 0.00 | 0.00 | 87 | 1014.2 |
| 20260905133940 | 13 | 192 | 3.2 | 4.8 | 0.00 | 0.00 | 0.00 | 87 | 1014.2 |
| 20260905133424 | 13 | 205 | 1.6 | 3.2 | 0.00 | 0.00 | 0.00 | 87 | 1014.1 |
| 20260905132928 | 13 | 45 | 0.0 | 3.2 | 0.00 | 0.00 | 0.00 | 87 | 1014.1 |
| 20260905132436 | 13 | 196 | 1.6 | 6.4 | 0.00 | 0.00 | 0.00 | 87 | 1014.1 |
| 20260905131951 | 13 | 185 | 3.2 | 6.4 | 0.00 | 0.00 | 0.00 | 86 | 1014.1 |
| 20260905131434 | 13 | 177 | 1.6 | 6.4 | 0.00 | 0.00 | 0.00 | 86 | 1014.1 |
| 20260905130931 | 13 | 208 | 3.2 | 6.4 | 0.00 | 0.00 | 0.00 | 86 | 1014.1 |
| 20260905130418 | 13 | 193 | 3.2 | 6.4 | 0.00 | 0.00 | 0.00 | 86 | 1014.2 |
| 20260905125921 | 13 | 200 | 3.2 | 6.4 | 0.00 | 0.00 | 0.00 | 86 | 1014.2 |
| 20260905125424 | 13 | 222 | 0.0 | 3.2 | 0.00 | 0.00 | 0.00 | 86 | 1014.2 |
| 20260905124928 | 13 | 88 | 1.6 | 3.2 | 0.00 | 0.00 | 0.00 | 86 | 1014.3 |
| 20260905124434 | 13 | 222 | 1.6 | 3.2 | 0.00 | 0.00 | 0.00 | 86 | 1014.3 |
| 20260905123921 | 13 | 88 | 1.6 | 3.2 | 0.00 | 0.00 | 0.00 | 86 | 1014.3 |
| 20260905123446 | 13 | 116 | 1.6 | 4.8 | 0.00 | 0.00 | 0.00 | 86 | 1014.2 |
| 20260905122931 | 14 | 192 | 1.6 | 4.8 | 0.00 | 0.00 | 0.00 | 86 | 1014.2 |
| 20260905122436 | 14 | 201 | 3.2 | 4.8 | 0.00 | 0.00 | 0.00 | 86 | 1014.2 |
| 20260905121938 | 13 | 232 | 3.2 | 4.8 | 0.00 | 0.00 | 0.00 | 86 | 1014.2 |
| 20260905121453 | 14 | 210 | 3.2 | 4.8 | 0.00 | 0.00 | 0.00 | 86 | 1014.3 |
| 20260905120935 | 14 | 187 | 3.2 | 4.8 | 0.00 | 0.00 | 0.00 | 85 | 1014.3 |
| 20260905120420 | 14 | 218 | 3.2 | 3.2 | 0.00 | 0.00 | 0.00 | 85 | 1014.2 |
| 20260905115955 | 14 | 222 | 1.6 | 4.8 | 0.00 | 0.00 | 0.00 | 86 | 1014.3 |
| 20260905115440 | 14 | 120 | 3.2 | 4.8 | 0.00 | 0.00 | 0.00 | 86 | 1014.2 |
| 20260905114954 | 14 | 144 | 3.2 | 4.8 | 0.00 | 0.00 | 0.00 | 86 | 1014.3 |
| 20260905114446 | 14 | 125 | 3.2 | 4.8 | 0.00 | 0.00 | 0.00 | 85 | 1014.3 |
| 20260905113931 | 14 | 147 | 3.2 | 4.8 | 0.00 | 0.00 | 0.00 | 85 | 1014.3 |
| 20260905113419 | 14 | 134 | 4.8 | 6.4 | 0.00 | 0.00 | 0.00 | 85 | 1014.3 |
| 20260905112924 | 14 | 141 | 3.2 | 6.4 | 0.00 | 0.00 | 0.00 | 85 | 1014.3 |
| 20260905112431 | 14 | 155 | 3.2 | 4.8 | 0.00 | 0.00 | 0.00 | 85 | 1014.3 |
| 20260905111917 | 15 | 130 | 3.2 | 4.8 | 0.00 | 0.00 | 0.00 | 85 | 1014.4 |
| 20260905111425 | 15 | 45 | 1.6 | 4.8 | 0.00 | 0.00 | 0.00 | 85 | 1014.4 |
| 20260905110947 | 15 | 88 | 1.6 | 8.0 | 0.00 | 0.00 | 0.00 | 85 | 1014.4 |
| 20260905110434 | 15 | 218 | 1.6 | 8.0 | 0.00 | 0.00 | 0.00 | 85 | 1014.3 |
| 20260905105917 | 15 | 228 | 3.2 | 11.3 | 0.00 | 0.00 | 0.00 | 85 | 1014.3 |
| 20260905105423 | 15 | 247 | 6.4 | 11.3 | 0.00 | 0.00 | 0.00 | 85 | 1014.4 |
| 20260905104929 | 15 | 254 | 4.8 | 11.3 | 0.00 | 0.00 | 0.00 | 85 | 1014.3 |
| 20260905104418 | 15 | 258 | 3.2 | 4.8 | 0.00 | 0.00 | 0.00 | 85 | 1014.3 |
| 20260905103924 | 15 | 151 | 1.6 | 6.4 | 0.00 | 0.00 | 0.00 | 85 | 1014.3 |
| 20260905103428 | 15 | 116 | 4.8 | 6.4 | 0.00 | 0.00 | 0.00 | 85 | 1014.3 |
| 20260905102934 | 15 | 151 | 1.6 | 6.4 | 0.00 | 0.00 | 0.00 | 84 | 1014.3 |
| 20260905102419 | 15 | 339 | 3.2 | 6.4 | 0.00 | 0.00 | 0.00 | 84 | 1014.3 |
| 20260905101927 | 15 | 45 | 1.6 | 8.0 | 0.00 | 0.00 | 0.00 | 85 | 1014.4 |
| 20260905101432 | 15 | 285 | 3.2 | 12.9 | 0.00 | 0.00 | 0.00 | 85 | 1014.4 |
| 20260905100941 | 15 | 282 | 4.8 | 12.9 | 0.00 | 0.00 | 0.00 | 85 | 1014.4 |
| 20260905100458 | 15 | 214 | 3.2 | 14.5 | 0.00 | 0.00 | 0.00 | 84 | 1014.3 |
| 20260905095926 | 15 | 257 | 6.4 | 16.1 | 0.00 | 0.00 | 0.00 | 84 | 1014.3 |
| 20260905095431 | 15 | 273 | 8.0 | 16.1 | 0.00 | 0.00 | 0.00 | 84 | 1014.3 |
| 20260905094921 | 15 | 251 | 8.0 | 14.5 | 0.00 | 0.00 | 0.00 | 84 | 1014.3 |
| 20260905094427 | 15 | 282 | 8.0 | 14.5 | 0.00 | 0.00 | 0.00 | 84 | 1014.3 |
| 20260905093935 | 15 | 268 | 8.0 | 19.3 | 0.00 | 0.00 | 0.00 | 84 | 1014.2 |
| 20260905093421 | 15 | 258 | 9.7 | 19.3 | 0.00 | 0.00 | 0.00 | 84 | 1014.2 |
| 20260905092927 | 15 | 301 | 8.0 | 16.1 | 0.00 | 0.00 | 0.00 | 84 | 1014.3 |
| 20260905092435 | 15 | 261 | 6.4 | 14.5 | 0.00 | 0.00 | 0.00 | 84 | 1014.3 |
| 20260905091937 | 15 | 237 | 6.4 | 16.1 | 0.00 | 0.00 | 0.00 | 84 | 1014.4 |
| 20260905091424 | 15 | 232 | 9.7 | 19.3 | 0.00 | 0.00 | 0.00 | 85 | 1014.4 |
| 20260905090931 | 15 | 273 | 9.7 | 22.5 | 0.00 | 0.00 | 0.00 | 85 | 1014.4 |
| 20260905090418 | 15 | 256 | 12.9 | 22.5 | 0.00 | 0.00 | 0.00 | 85 | 1014.5 |
| 20260905085922 | 15 | 292 | 12.9 | 22.5 | 0.00 | 0.00 | 0.00 | 86 | 1014.4 |
| 20260905085431 | 15 | 271 | 12.9 | 22.5 | 0.00 | 0.00 | 0.00 | 86 | 1014.5 |
| 20260905084939 | 15 | 217 | 12.9 | 22.5 | 0.00 | 0.00 | 0.00 | 86 | 1014.5 |
| 20260905084450 | 15 | 282 | 12.9 | 24.1 | 0.00 | 0.00 | 0.00 | 86 | 1014.5 |
| 20260905083918 | 15 | 292 | 12.9 | 24.1 | 0.00 | 0.00 | 0.00 | 85 | 1014.5 |
| 20260905083446 | 15 | 268 | 12.9 | 24.1 | 0.00 | 0.00 | 0.00 | 85 | 1014.6 |
| 20260905082931 | 15 | 270 | 14.5 | 24.1 | 0.00 | 0.00 | 0.00 | 85 | 1014.5 |
| 20260905082438 | 15 | 289 | 14.5 | 25.7 | 0.00 | 0.00 | 0.00 | 85 | 1014.6 |
| 20260905081953 | 15 | 280 | 14.5 | 25.7 | 0.00 | 0.00 | 0.00 | 85 | 1014.6 |
| 20260905081417 | 15 | 268 | 14.5 | 27.4 | 0.00 | 0.00 | 0.00 | 85 | 1014.5 |
| 20260905080921 | 15 | 292 | 16.1 | 27.4 | 0.00 | 0.00 | 0.00 | 85 | 1014.4 |
| 20260905080427 | 15 | 218 | 12.9 | 25.7 | 0.00 | 0.00 | 0.00 | 85 | 1014.5 |
| 20260905075930 | 15 | 252 | 16.1 | 25.7 | 0.00 | 0.00 | 0.00 | 85 | 1014.4 |
| 20260905075418 | 15 | 238 | 14.5 | 24.1 | 0.00 | 0.00 | 0.00 | 84 | 1014.4 |
| 20260905074926 | 15 | 294 | 14.5 | 24.1 | 0.00 | 0.00 | 0.00 | 84 | 1014.5 |
| 20260905074431 | 15 | 254 | 11.3 | 24.1 | 0.00 | 0.00 | 0.00 | 83 | 1014.4 |
| 20260905073937 | 15 | 256 | 11.3 | 22.5 | 0.00 | 0.00 | 0.00 | 83 | 1014.3 |
| 20260905073428 | 15 | 237 | 11.3 | 22.5 | 0.00 | 0.00 | 0.00 | 82 | 1014.3 |
| 20260905072931 | 15 | 268 | 9.7 | 16.1 | 0.00 | 0.00 | 0.00 | 82 | 1014.2 |
| 20260905072435 | 15 | 268 | 8.0 | 16.1 | 0.00 | 0.00 | 0.00 | 81 | 1014.3 |
| 20260905071924 | 15 | 279 | 9.7 | 17.7 | 0.00 | 0.00 | 0.00 | 81 | 1014.3 |
| 20260905071429 | 16 | 275 | 9.7 | 17.7 | 0.00 | 0.00 | 0.00 | 80 | 1014.3 |
| 20260905070936 | 16 | 256 | 8.0 | 20.9 | 0.00 | 0.00 | 0.00 | 80 | 1014.3 |
| 20260905070449 | 16 | 247 | 11.3 | 20.9 | 0.00 | 0.00 | 0.00 | 80 | 1014.2 |
| 20260905065945 | 16 | 278 | 12.9 | 24.1 | 0.00 | 0.00 | 0.00 | 80 | 1014.2 |
| 20260905065434 | 16 | 249 | 12.9 | 24.1 | 0.00 | 0.00 | 0.00 | 79 | 1014.2 |
| 20260905064950 | 16 | 270 | 12.9 | 20.9 | 0.00 | 0.00 | 0.00 | 79 | 1014.2 |
| 20260905064417 | 16 | 252 | 11.3 | 19.3 | 0.00 | 0.00 | 0.00 | 78 | 1014.3 |
| 20260905063943 | 16 | 289 | 11.3 | 22.5 | 0.00 | 0.00 | 0.00 | 78 | 1014.3 |
| 20260905063429 | 16 | 287 | 11.3 | 24.1 | 0.00 | 0.00 | 0.00 | 78 | 1014.3 |
| 20260905062916 | 16 | 268 | 11.3 | 25.7 | 0.00 | 0.00 | 0.00 | 78 | 1014.3 |
| 20260905062420 | 16 | 280 | 17.7 | 29.0 | 0.00 | 0.00 | 0.00 | 78 | 1014.3 |
| 20260905061958 | 16 | 278 | 16.1 | 29.0 | 0.00 | 0.00 | 0.00 | 78 | 1014.2 |
| 20260905061453 | 16 | 271 | 12.9 | 20.9 | 0.00 | 0.00 | 0.00 | 78 | 1014.3 |
| 20260905060920 | 16 | 281 | 11.3 | 22.5 | 0.00 | 0.00 | 0.00 | 78 | 1014.2 |
| 20260905060428 | 16 | 276 | 12.9 | 22.5 | 0.00 | 0.00 | 0.00 | 79 | 1014.3 |
| 20260905055933 | 16 | 277 | 12.9 | 20.9 | 0.00 | 0.00 | 0.00 | 79 | 1014.3 |
| 20260905055421 | 16 | 280 | 9.7 | 20.9 | 0.00 | 0.00 | 0.00 | 79 | 1014.4 |
| 20260905054922 | 16 | 261 | 12.9 | 25.7 | 0.00 | 0.00 | 0.00 | 79 | 1014.4 |
| 20260905054428 | 16 | 261 | 14.5 | 25.7 | 0.00 | 0.00 | 0.00 | 79 | 1014.4 |
| 20260905053932 | 16 | 263 | 9.7 | 22.5 | 0.00 | 0.00 | 0.00 | 79 | 1014.5 |
| 20260905053422 | 16 | 251 | 14.5 | 22.5 | 0.00 | 0.00 | 0.00 | 79 | 1014.5 |
| 20260905052929 | 16 | 268 | 11.3 | 20.9 | 0.00 | 0.00 | 0.00 | 79 | 1014.6 |
| 20260905052417 | 16 | 229 | 14.5 | 20.9 | 0.00 | 0.00 | 0.00 | 79 | 1014.6 |
| 20260905051922 | 16 | 257 | 11.3 | 22.5 | 0.00 | 0.00 | 0.00 | 79 | 1014.7 |
| 20260905051423 | 16 | 292 | 9.7 | 22.5 | 0.00 | 0.00 | 0.00 | 78 | 1014.7 |
| 20260905050931 | 16 | 279 | 11.3 | 22.5 | 0.00 | 0.00 | 0.00 | 78 | 1014.8 |
| 20260905050437 | 16 | 282 | 9.7 | 19.3 | 0.00 | 0.00 | 0.00 | 77 | 1014.8 |
| 20260905045954 | 16 | 250 | 9.7 | 20.9 | 0.00 | 0.03 | 0.00 | 76 | 1014.8 |
| 20260905045422 | 16 | 242 | 11.3 | 20.9 | 0.00 | 0.03 | 0.00 | 75 | 1014.7 |
| 20260905044957 | 16 | 277 | 11.3 | 20.9 | 0.00 | 0.03 | 0.00 | 75 | 1014.8 |
| 20260905044422 | 16 | 275 | 11.3 | 22.5 | 0.00 | 0.03 | 0.00 | 74 | 1014.7 |
| 20260905043925 | 16 | 284 | 14.5 | 22.5 | 0.00 | 0.03 | 0.00 | 74 | 1014.7 |
| 20260905043434 | 16 | 270 | 14.5 | 27.4 | 0.00 | 0.03 | 0.00 | 73 | 1014.6 |
| 20260905042918 | 16 | 256 | 16.1 | 27.4 | 0.00 | 0.03 | 0.00 | 73 | 1014.6 |
| 20260905042424 | 16 | 289 | 14.5 | 27.4 | 0.00 | 0.03 | 0.00 | 74 | 1014.6 |
| 20260905041930 | 16 | 275 | 14.5 | 24.1 | 0.00 | 0.03 | 0.00 | 74 | 1014.6 |
| 20260905041435 | 16 | 289 | 14.5 | 27.4 | 0.00 | 0.03 | 0.00 | 75 | 1014.6 |
| 20260905040923 | 16 | 259 | 14.5 | 25.7 | 0.00 | 0.03 | 0.00 | 76 | 1014.5 |
| 20260905040430 | 16 | 276 | 16.1 | 29.0 | 0.00 | 0.03 | 0.00 | 76 | 1014.5 |
| 20260905035930 | 16 | 283 | 16.1 | 29.0 | 0.00 | 0.05 | 0.00 | 76 | 1014.3 |
| 20260905035436 | 16 | 268 | 17.7 | 25.7 | 0.00 | 0.05 | 0.00 | 76 | 1014.3 |
| 20260905034922 | 16 | 289 | 14.5 | 29.0 | 0.00 | 0.05 | 0.00 | 76 | 1014.3 |
| 20260905034429 | 16 | 277 | 16.1 | 29.0 | 0.00 | 0.05 | 0.00 | 77 | 1014.3 |
| 20260905033935 | 16 | 280 | 14.5 | 27.4 | 0.00 | 0.05 | 0.00 | 78 | 1014.2 |
| 20260905033423 | 16 | 287 | 16.1 | 27.4 | 0.00 | 0.05 | 0.00 | 79 | 1014.1 |
| 20260905032949 | 16 | 301 | 16.1 | 29.0 | 0.00 | 0.05 | 0.00 | 80 | 1014.1 |
| 20260905032432 | 16 | 304 | 19.3 | 27.4 | 0.00 | 0.05 | 0.00 | 80 | 1014.1 |
| 20260905031935 | 16 | 270 | 17.7 | 29.0 | 0.00 | 0.05 | 0.00 | 80 | 1014.1 |
| 20260905031420 | 16 | 284 | 17.7 | 32.2 | 0.00 | 0.05 | 0.00 | 80 | 1014.1 |
| 20260905030959 | 16 | 287 | 17.7 | 33.8 | 0.00 | 0.05 | 0.00 | 80 | 1014.0 |
| 20260905030449 | 16 | 268 | 19.3 | 32.2 | 0.00 | 0.05 | 0.00 | 80 | 1014.1 |
| 20260905025937 | 16 | 251 | 19.3 | 32.2 | 0.00 | 0.05 | 0.00 | 80 | 1014.1 |
| 20260905025441 | 16 | 251 | 20.9 | 32.2 | 0.00 | 0.05 | 0.00 | 80 | 1014.0 |
| 20260905024927 | 16 | 258 | 20.9 | 32.2 | 0.00 | 0.05 | 0.00 | 80 | 1013.9 |
| 20260905024434 | 16 | 282 | 19.3 | 32.2 | 0.00 | 0.05 | 0.00 | 79 | 1013.9 |
| 20260905023921 | 16 | 290 | 17.7 | 35.4 | 0.00 | 0.05 | 0.00 | 79 | 1014.0 |
| 20260905023447 | 16 | 268 | 22.5 | 33.8 | 0.00 | 0.05 | 0.00 | 78 | 1013.9 |
| 20260905022931 | 16 | 283 | 22.5 | 30.6 | 0.00 | 0.05 | 0.00 | 78 | 1013.8 |
| 20260905022418 | 17 | 282 | 17.7 | 35.4 | 0.00 | 0.05 | 0.00 | 78 | 1013.9 |
| 20260905021940 | 17 | 287 | 19.3 | 35.4 | 0.00 | 0.05 | 0.00 | 78 | 1013.9 |
| 20260905021454 | 17 | 261 | 24.1 | 38.6 | 0.00 | 0.05 | 0.00 | 78 | 1013.8 |
| 20260905020951 | 17 | 301 | 20.9 | 38.6 | 0.00 | 0.05 | 0.00 | 77 | 1013.9 |
| 20260905020435 | 17 | 283 | 20.9 | 38.6 | 0.00 | 0.05 | 0.00 | 77 | 1013.9 |
| 20260905015920 | 17 | 268 | 24.1 | 37.0 | 0.00 | 0.05 | 0.00 | 76 | 1014.0 |
| 20260905015427 | 17 | 280 | 20.9 | 35.4 | 0.00 | 0.05 | 0.00 | 75 | 1013.9 |
| 20260905014929 | 17 | 270 | 24.1 | 35.4 | 0.00 | 0.05 | 0.00 | 74 | 1013.9 |
| 20260905014417 | 17 | 296 | 24.1 | 35.4 | 0.00 | 0.05 | 0.00 | 74 | 1014.0 |
| 20260905013923 | 17 | 284 | 20.9 | 35.4 | 0.00 | 0.05 | 0.00 | 74 | 1014.0 |
| 20260905013430 | 17 | 276 | 20.9 | 33.8 | 0.00 | 0.05 | 0.00 | 74 | 1014.0 |
| 20260905012916 | 17 | 264 | 22.5 | 33.8 | 0.00 | 0.05 | 0.00 | 74 | 1014.0 |
| 20260905012424 | 17 | 275 | 22.5 | 35.4 | 0.00 | 0.05 | 0.00 | 73 | 1014.1 |
| 20260905011934 | 18 | 273 | 19.3 | 35.4 | 0.00 | 0.05 | 0.00 | 73 | 1014.0 |
| 20260905011420 | 18 | 301 | 19.3 | 33.8 | 0.00 | 0.05 | 0.00 | 72 | 1014.0 |
| 20260905010944 | 18 | 263 | 17.7 | 29.0 | 0.00 | 0.05 | 0.00 | 72 | 1014.1 |
| 20260905010431 | 18 | 265 | 20.9 | 37.0 | 0.00 | 0.05 | 0.00 | 72 | 1014.0 |
| 20260905005935 | 18 | 256 | 20.9 | 41.8 | 0.00 | 0.05 | 0.00 | 72 | 1013.9 |
| 20260905005421 | 18 | 307 | 20.9 | 41.8 | 0.00 | 0.05 | 0.00 | 71 | 1013.9 |
| 20260905004928 | 18 | 294 | 20.9 | 38.6 | 0.00 | 0.05 | 0.00 | 71 | 1014.0 |
| 20260905004435 | 18 | 264 | 16.1 | 37.0 | 0.00 | 0.05 | 0.00 | 69 | 1014.0 |
| 20260905003921 | 18 | 263 | 25.7 | 41.8 | 0.00 | 0.05 | 0.00 | 69 | 1013.9 |
| 20260905003423 | 18 | 294 | 27.4 | 41.8 | 0.00 | 0.05 | 0.00 | 70 | 1013.9 |
| 20260905002929 | 18 | 313 | 19.3 | 38.6 | 0.00 | 0.05 | 0.00 | 70 | 1013.9 |
| 20260905002436 | 18 | 277 | 24.1 | 40.2 | 0.00 | 0.05 | 0.00 | 70 | 1013.8 |
| 20260905001940 | 18 | 307 | 22.5 | 37.0 | 0.00 | 0.05 | 0.00 | 70 | 1013.9 |
| 20260905001425 | 18 | 292 | 19.3 | 37.0 | 0.00 | 0.05 | 0.00 | 71 | 1013.9 |
| 20260905000930 | 18 | 288 | 20.9 | 35.4 | 0.00 | 0.05 | 0.00 | 71 | 1013.9 |
| 20260905000435 | 18 | 257 | 20.9 | 35.4 | 0.00 | 0.05 | 0.00 | 70 | 1014.0 |
| 20260904235923 | 18 | 264 | 19.3 | 37.0 | 0.00 | 0.05 | 0.00 | 69 | 1014.1 |
| 20260904235430 | 18 | 262 | 24.1 | 37.0 | 0.00 | 0.05 | 0.00 | 69 | 1014.1 |
| 20260904234937 | 18 | 289 | 20.9 | 33.8 | 0.00 | 0.05 | 0.00 | 69 | 1014.0 |
| 20260904234452 | 18 | 277 | 17.7 | 33.8 | 0.00 | 0.05 | 0.00 | 69 | 1014.1 |
| 20260904233936 | 18 | 268 | 22.5 | 35.4 | 0.00 | 0.05 | 0.00 | 69 | 1014.1 |
| 20260904233423 | 19 | 285 | 19.3 | 33.8 | 0.00 | 0.05 | 0.00 | 69 | 1014.1 |
| 20260904232927 | 19 | 258 | 20.9 | 33.8 | 0.00 | 0.05 | 0.00 | 69 | 1014.1 |
| 20260904232428 | 19 | 270 | 16.1 | 41.8 | 0.00 | 0.05 | 0.00 | 69 | 1014.2 |
| 20260904231937 | 18 | 282 | 24.1 | 41.8 | 0.00 | 0.05 | 0.00 | 69 | 1014.1 |
| 20260904231425 | 19 | 282 | 19.3 | 35.4 | 0.00 | 0.05 | 0.00 | 69 | 1014.1 |
| 20260904230931 | 19 | 285 | 17.7 | 38.6 | 0.00 | 0.05 | 0.00 | 68 | 1014.2 |
| 20260904230435 | 19 | 280 | 19.3 | 38.6 | 0.00 | 0.05 | 0.00 | 68 | 1014.2 |
| 20260904225919 | 19 | 282 | 19.3 | 37.0 | 0.00 | 0.05 | 0.00 | 69 | 1014.3 |
| 20260904225425 | 19 | 285 | 19.3 | 41.8 | 0.00 | 0.05 | 0.00 | 70 | 1014.4 |
| 20260904224932 | 18 | 292 | 25.7 | 38.6 | 0.00 | 0.05 | 0.00 | 69 | 1014.2 |
| 20260904224432 | 19 | 321 | 25.7 | 37.0 | 0.00 | 0.05 | 0.00 | 69 | 1014.2 |
| 20260904223940 | 19 | 273 | 20.9 | 35.4 | 0.00 | 0.05 | 0.00 | 69 | 1014.4 |
| 20260904223426 | 19 | 292 | 20.9 | 37.0 | 0.00 | 0.05 | 0.00 | 69 | 1014.4 |
| 20260904222933 | 18 | 277 | 24.1 | 41.8 | 0.00 | 0.05 | 0.00 | 69 | 1014.3 |
| 20260904222438 | 19 | 282 | 24.1 | 41.8 | 0.00 | 0.05 | 0.00 | 70 | 1014.5 |
| 20260904221953 | 19 | 287 | 24.1 | 40.2 | 0.00 | 0.05 | 0.00 | 70 | 1014.6 |
| 20260904221436 | 19 | 282 | 19.3 | 43.5 | 0.00 | 0.05 | 0.00 | 70 | 1014.6 |
| 20260904220932 | 19 | 270 | 30.6 | 43.5 | 0.00 | 0.05 | 0.00 | 69 | 1014.6 |
| 20260904220418 | 20 | 301 | 19.3 | 38.6 | 0.00 | 0.05 | 0.00 | 69 | 1014.5 |
| 20260904215924 | 19 | 285 | 24.1 | 38.6 | 0.00 | 0.05 | 0.00 | 68 | 1014.5 |
| 20260904215433 | 20 | 235 | 16.1 | 35.4 | 0.00 | 0.05 | 0.00 | 68 | 1014.5 |
| 20260904214918 | 20 | 226 | 19.3 | 33.8 | 0.00 | 0.05 | 0.00 | 68 | 1014.5 |
| 20260904214425 | 20 | 253 | 16.1 | 30.6 | 0.00 | 0.05 | 0.00 | 69 | 1014.6 |
| 20260904213932 | 20 | 261 | 16.1 | 30.6 | 0.00 | 0.05 | 0.00 | 69 | 1014.6 |
| 20260904213436 | 19 | 278 | 14.5 | 27.4 | 0.00 | 0.05 | 0.00 | 69 | 1014.5 |
| 20260904212920 | 19 | 301 | 12.9 | 29.0 | 0.00 | 0.05 | 0.00 | 70 | 1014.7 |
| 20260904212428 | 19 | 310 | 17.7 | 29.0 | 0.00 | 0.05 | 0.00 | 69 | 1014.6 |
| 20260904211936 | 19 | 299 | 12.9 | 25.7 | 0.00 | 0.05 | 0.00 | 70 | 1014.7 |
| 20260904211423 | 19 | 252 | 11.3 | 29.0 | 0.00 | 0.05 | 0.00 | 71 | 1014.7 |
| 20260904210930 | 18 | 209 | 14.5 | 29.0 | 0.00 | 0.05 | 0.00 | 71 | 1014.8 |
| 20260904210418 | 19 | 220 | 14.5 | 25.7 | 0.00 | 0.05 | 0.00 | 71 | 1014.8 |
| 20260904205923 | 19 | 235 | 14.5 | 30.6 | 0.00 | 0.05 | 0.00 | 71 | 1014.8 |
| 20260904205424 | 18 | 258 | 12.9 | 32.2 | 0.00 | 0.05 | 0.00 | 71 | 1014.8 |
| 20260904204930 | 19 | 265 | 17.7 | 32.2 | 0.00 | 0.05 | 0.00 | 71 | 1014.8 |
| 20260904204435 | 19 | 292 | 16.1 | 30.6 | 0.00 | 0.05 | 0.00 | 71 | 1014.8 |
| 20260904203919 | 19 | 236 | 11.3 | 32.2 | 0.00 | 0.05 | 0.00 | 71 | 1014.7 |
| 20260904203427 | 19 | 261 | 14.5 | 29.0 | 0.00 | 0.05 | 0.00 | 71 | 1014.7 |
| 20260904202929 | 19 | 274 | 16.1 | 29.0 | 0.00 | 0.05 | 0.00 | 70 | 1014.7 |
| 20260904202425 | 19 | 330 | 16.1 | 29.0 | 0.00 | 0.05 | 0.00 | 70 | 1014.6 |
| 20260904201955 | 19 | 278 | 12.9 | 24.1 | 0.00 | 0.05 | 0.00 | 71 | 1014.6 |
| 20260904201420 | 19 | 270 | 14.5 | 22.5 | 0.00 | 0.05 | 0.00 | 70 | 1014.7 |
| 20260904200925 | 19 | 310 | 11.3 | 24.1 | 0.00 | 0.05 | 0.00 | 71 | 1014.7 |
| 20260904200431 | 19 | 284 | 14.5 | 25.7 | 0.00 | 0.05 | 0.00 | 70 | 1014.6 |
| 20260904195937 | 19 | 316 | 11.3 | 25.7 | 0.00 | 0.05 | 0.00 | 71 | 1014.7 |
| 20260904195421 | 19 | 287 | 12.9 | 22.5 | 0.00 | 0.05 | 0.00 | 71 | 1014.7 |
| 20260904194928 | 19 | 248 | 12.9 | 22.5 | 0.00 | 0.05 | 0.00 | 71 | 1014.7 |
| 20260904194432 | 19 | 236 | 9.7 | 22.5 | 0.00 | 0.05 | 0.00 | 71 | 1014.6 |
| 20260904193918 | 19 | 316 | 9.7 | 24.1 | 0.00 | 0.05 | 0.00 | 70 | 1014.7 |
| 20260904193424 | 19 | 268 | 14.5 | 24.1 | 0.00 | 0.05 | 0.00 | 70 | 1014.7 |
| 20260904192930 | 19 | 229 | 8.0 | 20.9 | 0.00 | 0.05 | 0.00 | 71 | 1014.7 |
| 20260904192417 | 19 | 282 | 9.7 | 17.7 | 0.00 | 0.05 | 0.00 | 70 | 1014.7 |
| 20260904191923 | 18 | 292 | 9.7 | 20.9 | 0.00 | 0.05 | 0.00 | 71 | 1014.8 |
| 20260904191427 | 18 | 297 | 11.3 | 20.9 | 0.00 | 0.05 | 0.00 | 70 | 1014.8 |
| 20260904190931 | 18 | 244 | 8.0 | 20.9 | 0.00 | 0.05 | 0.00 | 71 | 1014.7 |